TimePST,TemperatureF,Dew PointF,Humidity,Sea Level PressureIn,VisibilityMPH,Wind Direction,Wind SpeedMPH,Gust SpeedMPH,PrecipitationIn,Events,Conditions,WindDirDegrees,DateUTC
12:53 AM,37.0,36.0,96,30.21,0.2,Calm,Calm,-,N/A,Fog,Fog,0,2013-12-27 08:53:00
1:53 AM,37.0,36.0,96,30.22,0.2,Calm,Calm,-,N/A,Fog,Fog,0,2013-12-27 09:53:00
2:53 AM,36.0,35.1,97,30.22,0.2,Calm,Calm,-,N/A,Fog,Fog,0,2013-12-27 10:53:00
3:53 AM,36.0,35.1,97,30.19,0.2,Calm,Calm,-,N/A,Fog,Fog,0,2013-12-27 11:53:00
4:53 AM,37.0,35.1,93,30.18,0.2,Calm,Calm,-,N/A,Fog,Fog,0,2013-12-27 12:53:00
5:53 AM,37.0,36.0,96,30.17,0.2,Calm,Calm,-,N/A,Fog,Fog,0,2013-12-27 13:53:00
6:53 AM,37.0,35.1,93,30.16,0.5,Calm,Calm,-,N/A,Fog,Fog,0,2013-12-27 14:53:00
7:06 AM,37.4,35.6,93,30.15,0.8,Calm,Calm,-,N/A,,Mist,0,2013-12-27 15:06:00
7:14 AM,37.4,35.6,93,30.14,1.8,Calm,Calm,-,N/A,,Overcast,0,2013-12-27 15:14:00
7:18 AM,37.4,35.6,93,30.14,3.0,Calm,Calm,-,N/A,,Mostly Cloudy,0,2013-12-27 15:18:00
7:43 AM,35.6,35.6,100,30.16,10.0,SW,3.5,-,N/A,,Scattered Clouds,230,2013-12-27 15:43:00
7:53 AM,36.0,35.1,97,30.17,9.0,Calm,Calm,-,N/A,,Partly Cloudy,0,2013-12-27 15:53:00
8:53 AM,37.9,36.0,93,30.17,10.0,South,9.2,-,N/A,,Mostly Cloudy,180,2013-12-27 16:53:00
9:53 AM,39.0,37.0,93,30.17,10.0,South,10.4,-,N/A,,Mostly Cloudy,180,2013-12-27 17:53:00
10:53 AM,39.9,37.0,89,30.19,10.0,Variable,5.8,-,N/A,,Overcast,0,2013-12-27 18:53:00
11:53 AM,43.0,39.0,86,30.18,10.0,SSW,8.1,-,N/A,,Overcast,210,2013-12-27 19:53:00
12:53 PM,44.1,39.9,85,30.17,10.0,South,15.0,-,0.00,,Overcast,190,2013-12-27 20:53:00
1:14 PM,44.6,39.2,81,30.15,10.0,South,11.5,21.9,N/A,,Overcast,190,2013-12-27 21:14:00
1:53 PM,46.0,42.1,86,30.17,10.0,South,9.2,-,0.00,,Overcast,190,2013-12-27 21:53:00
2:49 PM,46.4,42.8,87,30.18,10.0,SSW,5.8,-,N/A,,Overcast,210,2013-12-27 22:49:00
2:53 PM,46.0,43.0,89,30.19,10.0,SSW,6.9,-,N/A,,Overcast,210,2013-12-27 22:53:00
3:53 PM,46.9,42.1,83,30.24,10.0,Calm,Calm,-,N/A,,Overcast,0,2013-12-27 23:53:00
4:53 PM,46.0,42.1,86,30.26,10.0,Calm,Calm,-,N/A,,Overcast,0,2013-12-28 00:53:00
5:53 PM,46.0,43.0,89,30.25,10.0,South,5.8,-,N/A,,Overcast,180,2013-12-28 01:53:00
6:53 PM,46.0,43.0,89,30.29,10.0,Calm,Calm,-,N/A,,Overcast,0,2013-12-28 02:53:00
7:53 PM,45.0,42.1,90,30.30,10.0,SSW,4.6,-,N/A,,Overcast,200,2013-12-28 03:53:00
8:53 PM,45.0,42.1,90,30.32,10.0,Calm,Calm,-,N/A,,Overcast,0,2013-12-28 04:53:00
9:53 PM,44.1,41.0,89,30.35,10.0,Calm,Calm,-,N/A,,Overcast,0,2013-12-28 05:53:00
10:53 PM,45.0,43.0,93,30.37,10.0,Calm,Calm,-,N/A,,Overcast,0,2013-12-28 06:53:00
11:42 PM,44.6,42.8,93,30.37,10.0,Calm,Calm,-,N/A,,Overcast,0,2013-12-28 07:42:00
11:53 PM,43.0,41.0,93,30.38,10.0,Calm,Calm,-,N/A,,Overcast,0,2013-12-28 07:53:00